Weather History for Monticello, AR

Change the Weather History Date:

Thursday, August 28, 2014

  Actual Average Record
Temperature  
Mean Temperature 81 °F -  
Max Temperature 93 °F 92 °F 100 °F (1954)
Min Temperature 69 °F 66 °F 54 °F (1952)
Cooling Degree Days 16    
Growing Degree Days 31 (Base 50)    
Moisture  
Dew Point 66 °F    
Average Humidity 66    
Maximum Humidity 91    
Minimum Humidity 30    
Precipitation  
Precipitation 0.00 in - - ()
Sea Level Pressure  
Sea Level Pressure 29.97 in    
Wind  
Wind Speed 2 mph (East)    
Max Wind Speed 8 mph    
Max Gust Speed -    
Visibility 10 miles    
Events      
Averages and records for this station are not official NWS values.
T = Trace of Precipitation, MM = Missing Value Source: NWS Daily Summary

Daily Weather History Graph

Daily Weather History Graph

Search for Another Location

Airport:

Trip Planner

Search our weather history database for the weather conditions in past years. The results will help you decide how hot, cold, wet, or windy it might be!

Date:

Astronomy

Aug. 28, 2014 Rise Set
Actual Time 6:38 AM CDT 7:37 PM CDT
Civil Twilight 6:12 AM CDT 8:03 PM CDT
Nautical Twilight 5:42 AM CDT 8:33 PM CDT
Astronomical Twilight 5:11 AM CDT 9:04 PM CDT
Moon 9:20 AM CDT (8/28) 9:13 PM CDT (8/28)
Length of Visible Light 13h 50m
Length of Day
12h 59m
Waxing Crescent, 9% of the Moon is Illuminated
Aug 28
Waxing Crescent
Sep 2
First Quarter
Sep 8
Full
Sep 15
Last Quarter
Sep 24
New

Hourly Weather History & Observations

Time (CDT) Temp. Heat Index Dew Point Humidity Pressure Visibility Wind Dir Wind Speed Gust Speed Precip Events Conditions
12:53 AM 72.0 °F - 69.1 °F 91% 30.01 in 10.0 mi Calm Calm - N/A   Clear
1:53 AM 71.1 °F - 68.0 °F 90% 30.00 in 10.0 mi Calm Calm - N/A   Clear
2:53 AM 72.0 °F - 68.0 °F 87% 29.99 in 10.0 mi Calm Calm - N/A   Clear
3:53 AM 71.1 °F - 66.9 °F 87% 29.99 in 10.0 mi Calm Calm - N/A   Clear
4:53 AM 70.0 °F - 66.9 °F 90% 29.99 in 10.0 mi Calm Calm - N/A   Clear
5:53 AM 69.1 °F - 66.0 °F 90% 29.99 in 10.0 mi Calm Calm - N/A   Clear
6:53 AM 69.1 °F - 66.0 °F 90% 30.00 in 10.0 mi Calm Calm - N/A   Clear
7:53 AM 73.9 °F - 68.0 °F 82% 30.01 in 10.0 mi Calm Calm - N/A   Clear
8:53 AM 79.0 °F - 68.0 °F 69% 30.01 in 10.0 mi East 4.6 mph - N/A   Clear
9:53 AM 84.0 °F 86.5 °F 66.9 °F 56% 30.01 in 10.0 mi ESE 5.8 mph - N/A   Clear
10:53 AM 88.0 °F 90.3 °F 66.0 °F 48% 30.02 in 10.0 mi East 5.8 mph - N/A   Clear
11:53 AM 90.0 °F 92.4 °F 66.0 °F 45% 30.01 in 10.0 mi ESE 5.8 mph - N/A   Clear
12:53 PM 90.0 °F 90.3 °F 62.1 °F 39% 29.99 in 10.0 mi East 5.8 mph - N/A   Partly Cloudy
1:53 PM 93.0 °F 93.8 °F 62.1 °F 36% 29.97 in 10.0 mi East 8.1 mph - N/A   Clear
2:53 PM 93.0 °F 92.3 °F 59.0 °F 32% 29.95 in 10.0 mi East 4.6 mph - N/A   Clear
3:53 PM 93.9 °F 92.9 °F 57.9 °F 30% 29.93 in 10.0 mi NE 5.8 mph - N/A   Clear
4:53 PM 93.9 °F 92.9 °F 57.9 °F 30% 29.91 in 10.0 mi Calm Calm - N/A   Clear
5:53 PM 91.9 °F 90.8 °F 57.9 °F 32% 29.90 in 10.0 mi East 4.6 mph - N/A   Clear
7:53 PM 81.0 °F 84.1 °F 69.1 °F 67% 29.90 in 10.0 mi Calm Calm - N/A   Clear
8:53 PM 79.0 °F - 69.1 °F 72% 29.92 in 10.0 mi Calm Calm - N/A   Clear
9:53 PM 75.0 °F - 69.1 °F 82% 29.94 in 10.0 mi Calm Calm - N/A   Clear
10:53 PM 73.9 °F - 69.1 °F 85% 29.95 in 10.0 mi Calm Calm - N/A   Clear
11:53 PM 73.9 °F - 70.0 °F 87% 29.96 in 10.0 mi Calm Calm - N/A   Partly Cloudy